TimeEDT,TemperatureF,Dew PointF,Humidity,Sea Level PressureIn,VisibilityMPH,Wind Direction,Wind SpeedMPH,Gust SpeedMPH,PrecipitationIn,Events,Conditions,WindDirDegrees,DateUTC
12:15 AM,44.6,41.0,87,28.65,5.0,NW,28.8,44.9,0.01,,Overcast,310,2012-10-30 04:15:00
12:35 AM,44.6,41.0,87,28.66,7.0,WNW,24.2,36.8,0.02,,Overcast,300,2012-10-30 04:35:00
12:55 AM,44.6,42.8,93,28.68,8.0,WNW,18.4,29.9,0.03,,Overcast,300,2012-10-30 04:55:00
1:15 AM,44.6,41.0,87,28.68,9.0,WNW,20.7,32.2,N/A,,Overcast,290,2012-10-30 05:15:00
1:35 AM,44.6,41.0,87,28.69,5.0,WNW,16.1,31.1,0.01,,Overcast,290,2012-10-30 05:35:00
1:55 AM,42.8,41.0,93,28.71,5.0,West,17.3,23.0,0.03,,Overcast,280,2012-10-30 05:55:00
2:15 AM,42.8,39.2,87,28.73,5.0,West,18.4,25.3,0.02,,Overcast,270,2012-10-30 06:15:00
2:35 AM,42.8,39.2,87,28.75,5.0,West,16.1,21.9,0.04,,Overcast,270,2012-10-30 06:35:00
2:55 AM,41.0,39.2,93,28.77,5.0,West,12.7,23.0,0.06,,Overcast,270,2012-10-30 06:55:00
3:55 AM,41.0,39.2,93,28.83,7.0,WSW,10.4,19.6,0.05,,Overcast,240,2012-10-30 07:55:00
4:15 AM,41.0,37.4,87,28.85,8.0,SW,10.4,19.6,0.01,,Overcast,230,2012-10-30 08:15:00
4:55 AM,41.0,37.4,87,28.90,9.0,SW,10.4,17.3,0.02,,Overcast,220,2012-10-30 08:55:00
5:15 AM,41.0,37.4,87,28.93,10.0,SSW,10.4,-,0.01,,Overcast,210,2012-10-30 09:15:00
5:35 AM,41.0,39.2,93,28.95,9.0,SSW,8.1,17.3,0.02,,Overcast,200,2012-10-30 09:35:00
5:55 AM,41.0,39.2,93,28.97,9.0,SSW,9.2,-,0.03,,Overcast,210,2012-10-30 09:55:00
6:15 AM,41.0,39.2,93,28.99,5.0,SW,8.1,20.7,0.01,,Overcast,220,2012-10-30 10:15:00
6:35 AM,41.0,39.2,93,29.01,5.0,SSW,11.5,18.4,0.01,,Overcast,210,2012-10-30 10:35:00
6:55 AM,41.0,39.2,93,29.03,6.0,SW,11.5,19.6,0.01,,Overcast,220,2012-10-30 10:55:00
7:15 AM,41.0,37.4,87,29.05,7.0,SSW,8.1,-,N/A,,Overcast,210,2012-10-30 11:15:00
7:35 AM,41.0,37.4,87,29.06,5.0,SSW,10.4,16.1,N/A,,Overcast,200,2012-10-30 11:35:00
7:55 AM,41.0,37.4,87,29.08,5.0,SSW,6.9,-,0.01,,Overcast,200,2012-10-30 11:55:00
8:15 AM,41.0,37.4,87,29.10,5.0,South,10.4,19.6,N/A,,Overcast,190,2012-10-30 12:15:00
8:35 AM,39.2,37.4,93,29.13,6.0,South,15.0,23.0,0.01,,Overcast,190,2012-10-30 12:35:00
8:55 AM,39.2,37.4,93,29.14,5.0,South,8.1,17.3,0.02,,Overcast,190,2012-10-30 12:55:00
9:15 AM,39.2,37.4,93,29.16,7.0,SSW,5.8,-,0.01,,Overcast,200,2012-10-30 13:15:00
9:35 AM,39.2,37.4,93,29.17,8.0,SSW,5.8,-,0.01,,Overcast,200,2012-10-30 13:35:00
9:55 AM,39.2,37.4,93,29.19,10.0,South,6.9,-,0.01,,Overcast,190,2012-10-30 13:55:00
10:15 AM,39.2,37.4,93,29.20,10.0,SSW,10.4,-,N/A,,Overcast,210,2012-10-30 14:15:00
10:35 AM,41.0,37.4,87,29.22,10.0,SSW,9.2,-,N/A,,Overcast,200,2012-10-30 14:35:00
10:55 AM,41.0,37.4,87,29.23,10.0,SSW,9.2,-,N/A,,Overcast,210,2012-10-30 14:55:00
11:15 AM,39.2,37.4,93,29.24,10.0,SSW,11.5,18.4,N/A,,Overcast,200,2012-10-30 15:15:00
11:35 AM,39.2,37.4,93,29.25,10.0,SSW,6.9,16.1,N/A,,Overcast,210,2012-10-30 15:35:00
11:55 AM,41.0,37.4,87,29.26,9.0,SSW,8.1,-,N/A,,Overcast,210,2012-10-30 15:55:00
12:15 PM,41.0,39.2,93,29.27,10.0,SW,6.9,-,N/A,,Overcast,230,2012-10-30 16:15:00
12:35 PM,42.8,39.2,87,29.28,10.0,SW,8.1,-,N/A,,Overcast,230,2012-10-30 16:35:00
12:55 PM,42.8,39.2,87,29.28,10.0,WSW,6.9,-,N/A,,Overcast,240,2012-10-30 16:55:00
1:15 PM,42.8,39.2,87,29.29,10.0,SW,4.6,-,N/A,,Overcast,230,2012-10-30 17:15:00
1:35 PM,42.8,39.2,87,29.30,10.0,SW,4.6,-,N/A,,Overcast,230,2012-10-30 17:35:00
1:55 PM,42.8,39.2,87,29.30,10.0,WSW,6.9,-,N/A,,Overcast,240,2012-10-30 17:55:00
2:15 PM,42.8,39.2,87,29.31,10.0,SW,4.6,-,N/A,,Overcast,230,2012-10-30 18:15:00
2:35 PM,42.8,39.2,87,29.31,10.0,SW,5.8,-,N/A,,Overcast,220,2012-10-30 18:35:00
2:55 PM,42.8,39.2,87,29.32,10.0,SSW,5.8,-,N/A,,Overcast,210,2012-10-30 18:55:00
3:15 PM,42.8,39.2,87,29.33,10.0,SW,3.5,-,N/A,,Overcast,220,2012-10-30 19:15:00
3:35 PM,42.8,39.2,87,29.34,4.0,SW,3.5,-,N/A,,Overcast,230,2012-10-30 19:35:00
3:55 PM,42.8,39.2,87,29.35,10.0,WSW,3.5,-,N/A,,Overcast,240,2012-10-30 19:55:00
4:15 PM,42.8,39.2,87,29.36,10.0,SW,5.8,-,N/A,,Overcast,220,2012-10-30 20:15:00
4:35 PM,42.8,39.2,87,29.36,10.0,SSW,4.6,-,N/A,,Overcast,200,2012-10-30 20:35:00
4:55 PM,42.8,39.2,87,29.37,10.0,SSW,4.6,-,N/A,,Overcast,210,2012-10-30 20:55:00
5:15 PM,42.8,39.2,87,29.38,10.0,SSW,3.5,-,N/A,,Overcast,210,2012-10-30 21:15:00
5:35 PM,41.0,39.2,93,29.39,7.0,SSW,6.9,-,N/A,,Overcast,200,2012-10-30 21:35:00
5:55 PM,41.0,39.2,93,29.40,9.0,Calm,Calm,-,N/A,,Overcast,0,2012-10-30 21:55:00
6:15 PM,41.0,39.2,93,29.41,10.0,SW,4.6,-,N/A,,Overcast,230,2012-10-30 22:15:00
6:35 PM,41.0,39.2,93,29.42,10.0,Calm,Calm,-,N/A,,Overcast,0,2012-10-30 22:35:00
6:55 PM,41.0,39.2,93,29.43,10.0,Calm,Calm,-,N/A,,Overcast,0,2012-10-30 22:55:00
7:15 PM,41.0,39.2,93,29.44,8.0,WSW,4.6,-,N/A,,Overcast,240,2012-10-30 23:15:00
7:35 PM,41.0,37.4,87,29.44,9.0,Calm,Calm,-,N/A,,Overcast,0,2012-10-30 23:35:00
7:55 PM,41.0,39.2,93,29.45,10.0,WSW,3.5,-,N/A,,Overcast,240,2012-10-30 23:55:00
8:15 PM,41.0,39.2,93,29.45,10.0,Calm,Calm,-,N/A,,Overcast,0,2012-10-31 00:15:00
8:35 PM,41.0,39.2,93,29.46,10.0,WSW,3.5,-,N/A,,Overcast,240,2012-10-31 00:35:00
8:55 PM,41.0,39.2,93,29.47,10.0,WSW,5.8,-,N/A,,Overcast,240,2012-10-31 00:55:00
9:15 PM,41.0,37.4,87,29.47,10.0,SW,3.5,-,N/A,,Overcast,230,2012-10-31 01:15:00
9:35 PM,41.0,37.4,87,29.48,10.0,WSW,3.5,-,N/A,,Overcast,240,2012-10-31 01:35:00
9:55 PM,39.2,37.4,93,29.48,10.0,Calm,Calm,-,N/A,,Overcast,0,2012-10-31 01:55:00
10:15 PM,39.2,37.4,93,29.48,10.0,Calm,Calm,-,N/A,,Overcast,0,2012-10-31 02:15:00
10:35 PM,39.2,37.4,93,29.49,10.0,Calm,Calm,-,N/A,,Overcast,0,2012-10-31 02:35:00
10:55 PM,39.2,37.4,93,29.48,10.0,Calm,Calm,-,N/A,,Overcast,0,2012-10-31 02:55:00
11:15 PM,39.2,37.4,93,29.49,10.0,Calm,Calm,-,N/A,,Overcast,0,2012-10-31 03:15:00
11:35 PM,39.2,37.4,93,29.48,10.0,Calm,Calm,-,N/A,,Overcast,0,2012-10-31 03:35:00
11:55 PM,39.2,37.4,93,29.48,10.0,Calm,Calm,-,N/A,,Overcast,0,2012-10-31 03:55:00